Temp_Advection
nan nan nan nan nan nan nan nan nan nan nan nan nan nan nan nan nan nan nan nan nan nan nan nan nan nan nan nan nan nan nan nan nan nan nan nan nan nan nan nan nan nan nan nan nan nan nan nan nan
nan -0 -0 -1 -0 -0 0 -0 0 -0 -0 0 0 0 0 -0 -1 0 -0 0 0 -1 0 -1 -0 -0 0 0 0 0 -0 0 0 -0 -0 -0 -0 0 -0 -1 -0 0 0 0 0 -0 0 -0 nan
nan -0 -1 -0 -0 0 0 0 -0 -0 0 0 0 0 -0 -1 -0 -0 -0 0 1 1 1 -0 -1 -0 -0 0 -0 -0 -0 0 0 0 -0 0 -0 -0 -0 -0 -0 -0 0 0 -0 -0 0 0 nan
nan -0 -0 -0 0 -0 -0 -0 -0 -0 -0 -0 -0 -0 -1 -0 0 0 -1 -0 1 1 1 0 -0 -0 -0 -0 -0 -0 0 0 0 0 0 0 -0 -0 -1 -0 -0 -0 -0 0 -1 -0 0 0 nan
nan -1 -0 -0 0 -0 -0 -0 -0 -0 -0 -0 -0 0 -0 -0 -0 0 0 -0 0 0 1 1 1 0 0 0 0 0 -0 0 0 0 0 -0 -0 -0 -1 -0 -0 -0 0 0 0 -1 -0 0 nan
nan -0 -0 -0 0 -0 -0 -0 0 -0 -0 0 -0 0 -0 -0 -0 -0 0 0 0 0 0 1 1 1 0 0 0 -0 -0 -0 0 0 0 0 -0 -0 -0 -0 -0 0 0 0 0 -0 -1 0 nan
nan -0 -0 -0 0 0 -0 -0 -0 -0 -0 0 0 1 -1 -0 -0 -0 -0 0 0 0 1 1 1 1 1 1 0 0 0 0 -0 0 0 0 -0 -0 -0 -0 -0 -0 0 0 0 0 -0 -0 nan
nan -0 0 0 0 -0 -0 0 -0 -0 -0 0 -0 -0 0 0 0 0 0 -0 0 0 1 1 1 1 1 1 1 1 0 0 0 0 0 0 0 0 -0 -0 -0 0 -0 0 0 0 0 -0 nan
nan -0 0 0 0 -0 -0 -0 -0 0 0 -0 -0 -1 -0 0 1 1 0 0 0 -0 -0 0 0 0 0 1 1 1 1 0 0 0 0 0 0 0 0 0 -0 -0 0 0 0 0 1 0 nan
nan -0 -0 -0 -0 -0 -0 -0 -0 -0 -0 -1 -1 -1 0 0 1 0 -0 0 0 -0 -0 -0 -0 -0 -1 -0 0 0 1 0 0 0 0 0 -0 0 0 0 0 0 0 0 0 0 -0 -0 nan
nan -0 0 -1 -0 -0 -0 -1 -1 -1 -1 -3 -2 0 0 0 0 0 0 -0 -0 -0 -0 -0 -0 -0 0 -0 -0 -0 0 0 -0 -0 0 -0 0 0 0 -0 0 0 0 0 0 0 0 0 nan
nan -0 -0 -0 0 -0 -0 -0 -1 -3 -2 -1 -1 -0 0 0 -0 -0 0 -0 -0 -0 -0 0 -0 0 0 -0 0 -0 -0 0 0 -0 -1 -0 -0 0 -0 -0 -0 -0 -0 -0 -0 0 0 0 nan
nan -0 -0 -0 0 -0 0 -0 -1 -2 -1 0 -0 -0 0 0 0 0 0 0 0 0 0 0 0 -0 -0 -0 0 0 0 0 -0 -0 0 -0 -1 -0 0 -0 -0 -0 -0 -0 -0 0 -0 -0 nan
nan 0 -0 -0 -0 0 0 -0 0 -1 -0 0 -1 -1 -0 1 0 0 1 0 0 -0 -0 -0 -0 -0 0 -0 -0 0 0 0 -1 0 0 -0 -0 -0 0 0 0 0 0 0 -0 0 -0 -0 nan
nan -0 -0 -0 -0 -0 0 -0 -1 -1 0 -0 -1 -1 -0 0 0 1 0 0 -0 -0 0 -0 0 0 0 -0 -0 -0 0 -0 -0 0 -0 -0 0 0 -1 -0 0 0 0 0 -0 -0 -0 -0 nan
nan -0 0 -0 -0 0 -0 -1 -1 -0 -0 -0 -0 -0 -0 -0 -0 -0 0 0 0 0 0 -0 -0 -0 0 -0 -0 -0 1 -0 -0 -0 -0 0 0 0 -0 0 0 0 0 -0 -0 -0 -0 -0 nan
nan 0 0 -0 -0 -0 -0 -1 -1 -0 -0 -0 -0 -0 -0 0 -0 -1 -0 -0 -0 0 0 0 0 0 0 0 -0 1 0 -0 -0 -0 0 0 0 0 0 -0 0 -0 -0 0 -0 -0 -0 -0 nan
nan 0 0 -0 -0 -0 -0 -0 -0 -0 -0 -0 -0 -0 -0 -0 -0 -1 -1 -1 -0 0 0 0 0 1 0 0 -0 0 0 -0 -0 0 0 1 0 -0 0 0 -0 -1 0 0 -0 -0 0 0 nan
nan 0 -0 -0 -0 -0 -0 -0 -0 -0 -0 -0 -1 -1 -1 -0 -0 -0 -1 -1 -1 -0 0 0 0 0 0 0 -0 0 0 1 0 0 1 1 -0 -0 1 0 -1 -0 0 0 -0 0 0 0 nan
nan -0 -0 0 -0 -0 -0 0 -0 -0 -0 -0 -0 -1 -1 -1 -1 -0 -0 -2 -1 -1 -0 0 0 0 0 0 0 0 0 0 0 -0 0 -0 -0 0 0 -0 -0 0 0 -0 -0 0 -0 -0 nan
nan -0 -0 -0 -0 -0 -0 0 -0 -0 -0 0 -0 -0 -0 -1 -0 -1 -1 -1 -2 -1 -1 -0 0 -0 0 0 0 -0 0 0 -1 0 0 -0 -1 -0 0 0 -0 0 0 -0 -0 0 -0 0 nan
nan -0 -0 -0 -0 -0 -0 -0 -1 -0 -0 -0 -0 -0 -0 -0 -0 -0 -1 -1 -1 -3 -1 -1 -1 -0 -0 0 -0 0 0 -0 0 1 -0 -1 0 -0 0 0 0 0 1 0 0 0 -0 0 nan
nan -0 -0 -0 -0 -0 -0 -0 -0 0 1 -0 -0 -0 -1 -0 -0 -0 -0 -0 -0 -2 -3 -1 -1 -1 -0 -0 0 0 0 0 1 0 0 0 -0 0 0 -0 0 0 1 0 0 -0 0 -0 nan
nan -0 -0 -0 0 -0 -0 0 0 -1 -1 -1 -1 -0 -0 -0 -0 -0 -0 -0 -0 -1 -3 -2 -1 -1 -0 -0 0 0 0 1 0 -0 0 -0 0 -1 -1 1 0 -0 -0 -0 0 -0 -0 -0 nan
nan -0 0 0 0 -0 -0 0 -0 -1 -0 -1 -1 -1 -0 -0 -0 -0 -0 -1 -0 -0 -2 -2 -2 -1 -0 -0 0 0 1 0 -0 0 -0 -0 -0 -1 1 1 0 -1 -1 -0 0 0 -0 0 nan
nan -0 -0 -0 -0 -0 -0 0 -0 -0 -0 -0 -0 -1 -1 -0 -0 -0 -0 -1 -1 -0 -1 -2 -2 -2 -1 0 0 0 0 -0 -0 -0 -0 0 -0 1 0 0 0 -0 -0 -0 2 1 -0 0 nan
nan -0 -0 -0 0 -0 -0 -0 -0 -0 -0 0 -0 -0 -1 -1 -0 -0 -0 -0 -1 -1 -1 -2 -2 -1 -1 0 1 0 -0 -0 -0 0 0 0 0 1 0 0 -0 -0 0 1 0 0 1 0 nan
nan -0 0 0 -0 -1 0 1 0 -0 -0 -0 1 0 -1 -1 -0 -0 -0 -0 -0 -1 -1 -2 -2 -1 -0 0 0 0 0 -0 -0 0 0 0 0 -0 -0 0 0 0 0 0 -0 0 0 -0 nan
nan -0 -0 -0 -0 -0 -0 -0 -0 0 0 0 0 1 0 -0 -0 0 -0 -0 -0 -0 -0 -1 -2 -1 0 -0 -0 1 0 -0 -0 0 0 0 0 0 0 0 0 1 0 -0 0 0 -0 -0 nan
nan nan nan nan nan nan nan nan nan nan nan nan nan nan nan nan nan nan nan nan nan nan nan nan nan nan nan nan nan nan nan nan nan nan nan nan nan nan nan nan nan nan nan nan nan nan nan nan nan
Wind_Speed
8 8 6 6 7 6 5 6 5 8 7 5 12 3 5 6 4 2 12 18 27 26 25 24 22 20 19 19 20 19 18 16 15 15 17 16 12 8 8 12 13 11 12 18 19 20 21 22 22
5 4 3 6 7 8 8 7 8 8 3 2 7 4 3 4 4 9 20 24 27 27 26 25 23 21 20 20 20 19 18 16 15 16 17 14 9 8 10 12 14 14 18 20 19 18 19 19 19
3 2 8 4 4 9 6 5 8 5 3 5 3 2 4 3 4 17 13 29 29 26 26 25 24 22 21 21 21 20 18 16 16 17 15 10 8 9 11 12 13 15 16 20 19 17 17 16 18
2 4 5 8 6 7 6 6 5 3 6 3 2 2 4 4 8 10 30 29 27 25 25 26 25 24 22 21 21 19 18 16 17 17 13 10 9 9 12 11 12 15 16 19 19 16 14 14 16
3 5 6 8 5 5 7 6 5 4 6 6 5 1 2 3 8 19 29 28 27 26 24 27 25 23 22 22 20 19 18 18 18 16 11 9 9 8 11 11 10 13 16 15 15 13 12 13 15
7 6 7 11 9 7 6 6 5 3 6 7 5 7 2 6 14 23 25 27 25 26 26 27 25 24 22 21 20 19 18 18 17 14 11 10 9 8 9 11 10 11 14 14 12 12 13 13 13
10 7 9 4 2 6 7 4 5 4 6 6 5 6 4 11 17 25 24 25 24 25 26 27 26 24 22 20 20 18 18 18 17 13 12 10 9 7 8 10 13 13 12 12 10 10 12 13 13
3 5 5 5 5 9 4 2 4 3 2 2 3 3 6 16 21 26 25 24 24 24 25 27 25 23 22 21 19 18 18 19 17 14 12 10 9 8 9 10 11 8 8 10 10 11 12 13 13
3 6 6 3 4 8 6 3 7 3 2 2 3 7 4 20 26 29 31 28 26 25 25 25 25 23 21 20 21 18 21 19 17 14 11 9 11 12 12 12 10 9 11 11 10 11 12 13 13
6 7 3 4 5 3 3 7 6 3 3 9 10 11 7 20 26 31 33 34 28 28 26 25 25 25 24 21 21 19 20 21 18 15 13 11 13 12 12 12 10 11 10 10 10 9 12 14 10
1 4 5 8 6 3 4 10 16 7 7 19 23 11 9 17 20 25 23 25 25 25 23 24 24 25 25 22 22 21 20 21 19 16 14 14 13 14 13 13 13 13 11 11 12 12 9 9 9
5 5 2 4 4 3 2 1 14 21 11 17 15 3 9 13 17 20 21 23 24 24 23 24 24 24 22 20 24 22 22 23 21 18 16 14 13 14 13 12 12 13 11 11 10 9 9 9 9
5 7 8 4 1 9 8 7 9 22 19 16 11 8 9 8 11 20 22 24 29 25 25 27 29 25 23 22 21 22 25 23 20 20 18 16 14 14 15 14 13 12 13 12 11 11 9 8 8
5 9 8 6 4 8 5 8 1 18 18 16 16 15 13 9 8 10 14 20 27 27 27 27 29 30 26 24 25 24 23 23 23 20 19 17 15 14 14 14 14 14 14 13 11 10 9 8 8
7 6 6 12 7 3 4 5 10 15 14 14 17 17 14 11 6 10 7 16 20 24 25 27 25 28 29 27 27 26 20 23 24 20 20 17 17 15 15 14 14 14 14 14 12 11 9 7 7
5 6 10 8 8 3 4 8 10 14 14 15 16 17 17 15 10 3 3 12 19 22 25 27 28 29 29 27 27 28 26 24 25 24 21 19 18 16 16 15 15 16 15 14 12 11 9 8 7
4 6 4 6 11 5 4 8 9 11 12 15 16 17 17 16 15 8 5 7 17 20 21 23 26 32 31 30 27 28 28 25 24 26 24 21 19 19 17 16 16 18 16 15 13 11 11 10 8
2 5 4 1 8 4 1 5 5 8 10 12 14 16 17 18 19 17 13 7 12 19 20 21 28 29 31 32 32 29 29 26 24 26 26 23 21 21 19 18 18 21 16 16 14 12 12 12 10
3 2 0 4 6 6 1 1 2 6 8 11 13 15 16 18 18 18 18 11 8 13 22 23 22 30 34 36 38 32 28 28 31 24 28 24 23 23 21 17 21 21 18 16 17 14 14 14 13
3 0 3 2 3 6 3 7 3 2 8 11 14 16 17 18 19 20 20 18 13 9 17 24 25 26 33 35 33 35 36 33 37 23 22 28 26 25 23 21 21 23 20 19 19 17 14 14 16
6 5 3 5 9 6 7 13 11 6 3 6 12 14 16 19 20 21 22 21 20 17 13 18 27 27 29 35 35 36 37 36 35 31 27 28 29 27 27 24 21 23 23 21 22 20 19 15 16
3 4 5 6 7 5 1 5 12 8 4 6 13 17 19 20 20 20 21 22 22 21 21 16 19 29 28 30 40 36 40 39 39 32 30 28 32 31 29 28 26 25 25 23 24 23 21 19 16
6 8 8 8 10 9 14 7 5 7 6 9 13 17 21 21 21 22 21 21 21 21 22 23 17 22 29 27 39 35 41 43 39 32 34 29 29 34 29 30 30 29 29 25 23 22 25 21 19
10 8 11 8 8 10 14 10 5 4 6 10 14 17 19 23 24 21 21 21 20 20 20 19 22 15 24 30 31 37 38 35 39 40 35 33 32 31 33 31 30 32 31 29 28 27 26 25 23
10 7 5 5 6 6 4 6 4 6 7 11 16 18 19 20 23 25 25 24 23 22 20 17 20 23 15 27 30 33 33 35 42 40 39 37 35 31 33 34 34 32 33 32 32 31 31 29 29
6 5 4 5 4 6 9 7 6 5 8 13 15 17 18 20 21 23 24 24 23 24 21 19 17 18 18 18 26 32 33 31 42 40 41 37 38 34 29 32 35 37 35 36 35 33 33 32 32
4 1 3 5 11 8 9 5 8 3 12 17 18 19 20 21 22 23 24 23 22 22 22 22 17 18 14 15 20 29 33 35 43 44 39 35 34 31 32 30 33 32 38 40 38 36 31 29 28
4 4 4 4 4 9 6 8 2 10 14 16 19 18 21 21 22 22 23 23 22 20 20 21 17 19 16 10 14 18 18 24 33 38 36 36 33 35 27 29 29 24 29 37 40 44 39 34 31
3 3 2 4 6 7 11 1 1 7 11 13 17 16 19 21 22 23 23 21 21 19 18 18 18 17 16 11 11 14 19 27 24 16 21 23 23 25 33 44 35 46 33 33 40 25 37 36 37
3 4 2 4 3 4 5 8 2 9 14 16 20 18 20 20 21 23 22 21 20 18 17 16 16 14 15 13 10 11 16 21 21 22 22 26 30 29 25 25 22 30 31 29 28 26 32 36 36
Wind_Direction
320 329 320 273 240 244 139 137 48 129 151 138 164 180 190 48 125 157 149 154 157 154 165 163 165 164 161 162 164 162 159 152 142 147 149 146 144 138 122 112 118 129 119 102 111 119 121 117 113
312 326 274 264 258 223 138 136 165 112 90 192 168 263 242 94 73 132 145 156 159 162 162 163 166 165 165 165 166 166 162 157 148 152 152 144 147 128 108 106 114 120 119 127 124 127 127 126 121
300 241 253 253 257 267 136 184 76 37 130 184 215 264 359 55 88 150 170 154 161 163 160 161 162 165 165 166 166 167 165 161 156 155 153 146 134 112 106 111 112 122 119 128 130 131 129 122 125
254 216 223 245 214 64 112 93 18 134 145 169 288 212 84 40 160 164 154 153 157 159 161 161 161 164 164 168 169 169 168 163 160 158 155 146 125 114 113 119 117 130 132 134 133 131 131 122 123
228 235 230 233 219 99 93 42 1 314 203 209 221 219 66 76 142 151 156 158 158 155 161 162 164 165 169 171 172 169 167 163 162 161 160 144 133 124 118 128 134 136 136 134 131 129 127 116 119
216 265 232 221 180 121 106 33 13 293 253 227 245 254 100 135 147 156 159 158 162 161 164 164 168 170 172 172 171 167 165 164 167 167 159 150 142 129 123 140 139 141 139 128 127 125 122 121 119
266 234 256 303 168 163 112 12 11 315 265 233 262 243 141 149 159 158 162 161 160 163 162 167 170 172 175 173 174 169 171 167 170 167 162 155 145 135 130 136 140 138 137 132 131 126 124 123 117
260 262 219 214 206 102 42 355 0 342 61 307 292 261 191 169 159 160 165 165 163 165 168 168 168 170 172 176 177 172 171 170 170 168 167 160 145 140 140 136 133 127 134 128 126 128 127 125 124
228 234 215 153 187 90 30 353 14 335 198 106 5 345 326 169 161 164 168 167 168 169 170 170 168 169 169 170 177 176 172 172 171 171 169 157 146 138 129 162 144 132 131 119 119 124 129 126 127
258 252 97 62 73 56 7 13 359 329 149 50 7 9 130 162 169 172 171 174 171 172 172 174 172 175 173 171 177 176 177 176 176 176 169 152 151 143 170 161 154 143 137 123 115 120 117 105 123
200 318 133 72 58 10 327 79 40 349 80 352 318 306 180 172 173 171 172 173 173 173 174 177 178 182 180 176 175 184 179 180 185 183 168 175 160 163 159 159 157 152 147 139 132 125 111 151 145
151 78 53 47 46 23 16 57 73 49 7 346 9 59 178 183 177 175 173 175 178 178 180 181 185 187 180 182 186 189 188 188 190 190 188 184 168 161 169 159 163 162 152 156 146 156 166 151 154
117 121 73 51 90 29 117 51 106 33 10 9 38 79 108 158 185 188 189 199 190 186 188 192 196 189 187 186 190 197 201 193 194 197 196 193 182 177 170 173 171 173 172 168 164 164 148 148 151
113 114 92 50 75 58 121 56 177 1 6 20 36 42 53 93 142 174 197 198 200 193 195 195 201 196 197 192 201 200 206 199 202 199 202 202 205 195 182 174 177 180 173 169 165 165 154 151 159
142 173 125 26 354 76 228 84 41 1 12 32 35 32 35 53 95 141 179 190 200 214 202 201 203 202 206 203 204 205 202 207 204 203 207 210 209 204 190 180 182 181 177 170 166 168 160 157 157
196 229 218 44 0 84 247 121 34 11 17 32 34 31 28 22 23 38 207 207 207 210 216 213 207 212 213 215 213 217 213 213 210 207 210 212 213 210 200 189 184 182 182 177 176 176 175 173 169
194 233 248 145 19 332 320 104 31 17 24 28 29 31 27 19 10 356 332 248 217 207 217 223 219 219 215 220 221 224 217 222 218 212 215 215 215 212 205 194 189 189 184 185 187 189 190 189 182
118 202 188 2 23 344 99 100 58 29 30 29 23 22 23 19 9 358 344 312 244 225 216 219 231 226 220 221 226 224 225 231 220 221 215 216 216 216 211 209 196 198 190 192 196 196 197 195 198
83 90 334 89 21 315 330 192 62 40 36 28 21 14 13 12 5 0 352 319 291 235 227 221 213 240 225 229 228 227 224 237 234 228 217 216 215 218 216 211 210 204 202 202 208 207 205 198 199
43 332 53 156 354 306 235 240 182 79 53 38 20 12 6 0 360 359 357 349 309 284 231 228 225 217 225 240 233 231 227 223 232 224 226 220 219 220 221 217 219 214 207 212 215 211 208 207 209
40 18 7 326 317 236 267 248 194 172 102 37 20 7 2 359 354 353 351 351 338 308 286 240 232 227 215 229 238 235 230 224 235 229 223 228 222 223 225 227 225 222 216 218 224 225 221 215 222
250 14 303 288 298 282 214 273 185 171 191 39 8 2 356 352 350 347 348 344 343 327 307 293 249 235 228 219 239 235 226 229 239 232 227 225 222 223 226 230 229 226 222 220 226 228 226 218 223
30 318 285 281 270 281 237 250 186 166 186 1 359 355 351 347 345 344 342 341 339 335 316 304 280 238 229 238 224 234 242 236 245 223 232 230 226 223 223 228 230 232 227 223 224 225 231 227 222
324 281 246 261 258 243 255 216 257 81 355 336 344 343 344 343 339 336 338 335 334 333 323 300 288 258 227 226 223 231 240 244 237 238 238 233 231 229 227 229 230 234 238 236 235 234 236 234 232
338 303 265 222 203 262 57 250 23 80 11 351 343 340 337 338 336 332 332 333 331 331 324 308 284 259 232 221 225 237 244 251 237 247 240 234 235 242 237 231 232 235 239 243 242 245 242 241 240
330 326 329 287 301 314 162 246 111 90 360 342 338 339 337 334 333 330 325 325 323 324 324 309 288 271 245 217 223 233 238 244 242 235 237 236 234 240 243 243 238 240 241 245 242 239 244 243 244
10 30 0 290 246 253 247 139 167 333 345 340 337 333 333 333 330 326 323 320 318 317 316 305 289 268 255 213 214 226 235 242 234 244 234 229 234 238 247 255 258 249 250 248 249 244 238 237 242
354 346 231 197 271 272 238 245 239 352 338 338 334 337 331 326 326 324 322 317 315 312 308 300 286 269 254 222 206 200 210 240 236 226 223 227 231 235 241 231 239 260 275 273 255 248 243 239 241
36 15 306 277 276 282 287 52 52 325 325 322 324 331 333 322 325 324 321 318 313 309 305 303 282 266 250 244 214 190 202 234 229 232 221 239 231 243 245 252 261 255 264 280 251 251 253 247 246
354 5 298 287 277 280 290 288 303 336 324 329 327 333 324 323 325 325 327 321 315 312 308 298 282 266 257 251 208 193 195 205 207 216 210 224 227 226 245 232 231 221 243 249 289 256 235 247 247
Height
1527 1526 1525 1525 1519 1508 1507 1509 1505 1510 1513 1514 1517 1517 1517 1519 1523 1536 1532 1535 1539 1543 1548 1552 1556 1559 1561 1564 1567 1569 1571 1572 1572 1575 1578 1580 1580 1580 1580 1581 1581 1579 1580 1583 1583 1583 1582 1581 1582
1526 1526 1525 1521 1512 1508 1506 1506 1508 1510 1515 1519 1520 1522 1521 1521 1527 1528 1531 1536 1540 1543 1547 1552 1557 1560 1562 1565 1568 1570 1572 1574 1575 1576 1579 1580 1583 1583 1582 1583 1584 1584 1581 1584 1586 1586 1584 1584 1584
1525 1525 1523 1512 1506 1507 1506 1508 1508 1517 1520 1521 1522 1525 1525 1529 1530 1530 1530 1535 1540 1544 1548 1551 1556 1561 1564 1567 1569 1571 1573 1576 1577 1578 1581 1582 1583 1585 1584 1584 1585 1587 1584 1585 1587 1588 1587 1586 1586
1526 1526 1523 1513 1506 1509 1506 1518 1522 1519 1523 1524 1525 1522 1529 1531 1533 1534 1533 1537 1542 1547 1549 1553 1557 1561 1565 1569 1570 1572 1575 1577 1580 1581 1582 1584 1584 1586 1587 1587 1588 1587 1588 1587 1587 1589 1590 1589 1589
1525 1521 1510 1509 1507 1514 1519 1523 1523 1522 1519 1522 1524 1521 1529 1532 1532 1533 1535 1539 1544 1548 1552 1555 1558 1562 1566 1570 1573 1574 1576 1578 1581 1583 1584 1585 1586 1587 1589 1589 1590 1589 1590 1589 1588 1591 1592 1592 1592
1521 1518 1510 1506 1507 1515 1521 1524 1524 1523 1522 1522 1524 1524 1530 1531 1533 1537 1539 1542 1546 1548 1552 1556 1561 1564 1567 1571 1573 1575 1576 1579 1583 1585 1586 1587 1588 1589 1591 1591 1591 1593 1591 1591 1591 1592 1594 1594 1594
1518 1512 1505 1504 1510 1515 1522 1526 1524 1524 1521 1522 1524 1522 1531 1532 1535 1537 1542 1545 1548 1550 1553 1557 1562 1566 1569 1572 1574 1575 1577 1579 1583 1586 1587 1588 1589 1591 1592 1592 1593 1594 1594 1592 1594 1594 1595 1596 1597
1522 1516 1513 1512 1511 1515 1528 1525 1526 1524 1520 1526 1527 1520 1527 1532 1534 1537 1543 1546 1548 1552 1554 1557 1561 1565 1570 1573 1575 1576 1578 1580 1583 1586 1588 1590 1589 1591 1592 1593 1595 1595 1596 1595 1595 1596 1597 1598 1599
1525 1514 1509 1511 1516 1522 1529 1527 1526 1524 1523 1526 1530 1530 1530 1530 1532 1536 1538 1543 1547 1551 1555 1557 1561 1566 1570 1574 1576 1577 1579 1581 1584 1586 1589 1590 1592 1593 1594 1596 1595 1596 1598 1596 1597 1597 1599 1599 1601
1520 1512 1509 1522 1524 1526 1528 1528 1528 1523 1521 1528 1530 1531 1531 1530 1531 1533 1535 1540 1546 1551 1555 1558 1561 1565 1569 1573 1575 1578 1579 1581 1584 1586 1588 1593 1593 1596 1596 1596 1597 1597 1599 1598 1599 1600 1601 1603 1605
1523 1514 1524 1526 1529 1531 1529 1530 1532 1526 1525 1537 1533 1532 1532 1534 1536 1538 1543 1546 1549 1553 1557 1560 1563 1566 1567 1571 1575 1577 1579 1580 1583 1585 1589 1592 1594 1594 1594 1595 1597 1598 1599 1601 1600 1602 1607 1609 1609
1526 1529 1528 1532 1532 1531 1530 1532 1537 1540 1544 1539 1532 1530 1533 1536 1538 1541 1545 1547 1550 1554 1557 1559 1563 1567 1570 1572 1574 1577 1578 1580 1582 1584 1587 1590 1593 1595 1596 1598 1600 1601 1603 1604 1604 1606 1607 1607 1608
1524 1530 1532 1534 1534 1533 1532 1535 1536 1542 1542 1538 1534 1531 1532 1537 1540 1540 1544 1546 1549 1552 1555 1557 1559 1564 1568 1571 1575 1577 1577 1581 1582 1584 1586 1589 1592 1594 1596 1598 1600 1602 1603 1604 1605 1605 1606 1607 1608
1531 1532 1534 1535 1535 1535 1532 1537 1536 1542 1543 1540 1535 1534 1533 1532 1537 1542 1545 1545 1546 1549 1553 1554 1555 1559 1564 1568 1571 1575 1577 1580 1582 1584 1586 1588 1589 1592 1593 1595 1598 1601 1602 1603 1605 1606 1606 1608 1609
1533 1530 1533 1538 1535 1533 1535 1534 1544 1547 1544 1542 1541 1540 1537 1535 1536 1537 1539 1541 1544 1553 1552 1553 1557 1558 1561 1565 1568 1572 1576 1578 1581 1584 1586 1587 1588 1589 1592 1594 1597 1599 1601 1602 1603 1605 1607 1608 1609
1528 1528 1523 1540 1536 1534 1533 1529 1547 1547 1544 1543 1543 1542 1541 1538 1536 1537 1537 1538 1541 1543 1548 1550 1553 1556 1559 1563 1565 1568 1573 1576 1578 1581 1584 1585 1587 1588 1589 1593 1595 1598 1600 1601 1603 1605 1606 1608 1609
1527 1512 1524 1536 1540 1534 1531 1533 1548 1549 1546 1544 1544 1545 1545 1543 1540 1537 1537 1537 1539 1541 1544 1548 1550 1554 1554 1558 1562 1565 1571 1574 1576 1578 1581 1584 1585 1587 1588 1591 1594 1594 1597 1600 1603 1603 1606 1607 1608
1526 1526 1530 1532 1543 1537 1533 1541 1548 1550 1548 1547 1546 1546 1546 1546 1543 1539 1536 1535 1536 1538 1541 1543 1548 1550 1551 1554 1556 1561 1567 1572 1575 1576 1578 1581 1583 1584 1587 1588 1591 1592 1595 1597 1600 1602 1603 1605 1607
1539 1536 1534 1539 1545 1541 1540 1540 1547 1550 1549 1549 1548 1548 1548 1547 1546 1542 1537 1534 1535 1534 1537 1538 1538 1545 1548 1549 1551 1551 1562 1566 1571 1574 1575 1578 1579 1581 1584 1587 1588 1590 1595 1596 1597 1598 1600 1602 1603
1542 1540 1540 1543 1545 1543 1537 1534 1544 1549 1551 1551 1551 1549 1549 1548 1546 1543 1540 1536 1533 1532 1533 1535 1536 1538 1544 1548 1549 1552 1557 1559 1564 1572 1574 1574 1576 1578 1582 1584 1585 1587 1591 1593 1595 1597 1597 1600 1600
1546 1545 1547 1547 1544 1540 1539 1529 1537 1547 1550 1551 1552 1552 1550 1549 1546 1544 1540 1537 1533 1531 1530 1531 1533 1535 1536 1542 1545 1548 1553 1556 1560 1564 1567 1569 1573 1575 1577 1580 1584 1585 1587 1589 1591 1593 1595 1598 1597
1544 1554 1553 1549 1544 1528 1539 1519 1525 1536 1544 1548 1552 1551 1550 1548 1547 1545 1541 1537 1534 1530 1529 1528 1527 1530 1533 1535 1537 1542 1545 1548 1552 1557 1560 1564 1568 1570 1572 1576 1580 1582 1584 1586 1588 1589 1591 1594 1595
1551 1556 1551 1547 1543 1538 1529 1534 1508 1534 1538 1548 1553 1553 1550 1548 1546 1543 1541 1538 1534 1530 1526 1525 1525 1526 1528 1533 1532 1536 1540 1544 1547 1551 1555 1559 1563 1565 1568 1571 1575 1578 1580 1582 1585 1586 1587 1589 1592
1557 1550 1544 1544 1538 1533 1519 1526 1507 1531 1557 1555 1555 1554 1552 1548 1545 1543 1540 1537 1534 1530 1524 1523 1521 1521 1522 1525 1524 1531 1535 1539 1542 1544 1549 1553 1556 1560 1562 1567 1570 1573 1576 1578 1580 1583 1584 1586 1587
1554 1544 1533 1531 1532 1524 1534 1534 1527 1555 1561 1561 1558 1555 1552 1549 1545 1540 1537 1533 1530 1528 1523 1520 1519 1518 1516 1519 1523 1527 1529 1533 1534 1539 1541 1546 1549 1552 1557 1561 1565 1568 1571 1574 1576 1578 1579 1581 1582
1561 1555 1543 1541 1526 1521 1535 1525 1532 1560 1561 1562 1559 1556 1553 1549 1546 1541 1536 1532 1528 1525 1521 1516 1515 1514 1513 1512 1515 1519 1524 1527 1530 1531 1534 1539 1544 1547 1551 1555 1559 1562 1566 1567 1569 1572 1574 1575 1576
1562 1553 1565 1559 1541 1544 1520 1532 1551 1557 1562 1561 1558 1555 1552 1549 1545 1540 1535 1531 1526 1523 1519 1514 1511 1511 1508 1508 1510 1514 1517 1521 1522 1524 1528 1530 1537 1542 1546 1547 1550 1555 1559 1561 1563 1565 1568 1570 1571
1570 1571 1562 1558 1549 1527 1507 1518 1527 1560 1561 1559 1556 1554 1551 1548 1544 1539 1534 1528 1524 1521 1517 1512 1508 1507 1506 1503 1506 1508 1511 1514 1516 1520 1522 1523 1530 1536 1536 1532 1542 1546 1549 1548 1551 1554 1559 1563 1564
1568 1568 1566 1566 1551 1535 1521 1526 1562 1561 1558 1556 1552 1550 1549 1545 1540 1536 1531 1526 1522 1518 1515 1510 1505 1504 1503 1499 1501 1502 1506 1509 1513 1513 1518 1517 1529 1532 1531 1531 1537 1538 1541 1544 1545 1543 1547 1554 1558
1578 1573 1572 1565 1554 1552 1552 1540 1556 1556 1556 1554 1550 1548 1546 1542 1538 1533 1527 1522 1519 1514 1510 1506 1503 1500 1500 1499 1498 1499 1502 1505 1507 1509 1511 1518 1523 1523 1524 1527 1527 1530 1534 1540 1536 1536 1542 1546 1549